[[{"header":{"parameterUnit":"m.s-1","parameterCategory":1,"la1":30.2991,"la2":30.254,"lo1":-89.0895,"lo2":-89.0444,"dy":0.0017,"dx":0.0017,"nx":28,"ny":28,"refTime":"2025-03-03T03:00:00:Z","depth":0,"parameterNumber":2,"parameterNumberName":"U-component_of_WINDS"},"data":[0,0,0,0,0,0,0,0,0,0,0,0,0,0,0,0,0,0,0,0,0,0,0,0,0,0,0,0,0,0,0,0,0,0,0,0,0,0,0,0,0,0,0,0,0,0,0,0,0,0,0,0,0,0,0,0,0,0,-4.9957,-4.9958,0,-4.9982,-4.9983,-4.9983,-4.9934,-4.9932,-4.993,-4.9929,-4.9955,-4.9958,-4.996,0,0,0,0,0,0,0,0,0,0,0,0,0,-4.987,-4.9872,-4.9957,-4.9958,-4.9958,-4.9982,-4.9983,-4.9983,-4.9934,-4.9932,-4.993,-4.9928,-4.9955,-4.9957,-4.996,0,0,0,0,0,0,0,0,0,0,0,0,0,-4.9903,-4.9872,-4.9957,-4.9936,-4.9935,-4.9982,-4.9983,-4.9983,-4.9934,-4.9932,-4.9929,-4.9927,-4.9954,-4.9957,-4.996,-5.0029,0,0,-4.9971,-4.9972,0,0,0,0,0,0,0,0,-4.9901,-4.9906,-4.9939,-4.9938,-4.9936,-4.9952,-4.9961,-4.9999,-4.9935,-4.9935,-4.9929,-4.9926,-4.9956,-4.9959,-4.9969,-5.0031,-5.0032,-4.9971,-4.9973,-4.9974,-4.9975,0,0,0,0,0,0,0,-4.9899,-4.9904,-4.9967,-4.994,-4.9938,-4.9927,-4.9929,-4.9968,-4.9959,-4.9934,-4.9931,-4.9934,-4.9955,-4.9966,-4.997,-5.0032,-4.9971,-4.9974,-4.9976,-4.9977,-5.0153,-5.0155,0,0,0,0,0,0,-4.9899,-4.9903,-4.9966,-4.9968,-4.9912,-4.993,-4.9932,-4.995,-4.9958,-4.9957,-4.9936,-4.9932,-4.9962,-4.9966,-4.997,-5.0051,-4.9974,-4.9977,-4.9979,-5.015,-5.0153,-5.0156,0,0,0,0,0,0,-4.9897,-4.9905,-4.9965,-4.9935,-4.9941,-4.9934,-4.9954,-4.9951,-4.9962,-4.996,-4.9958,-4.9949,-4.996,-4.9966,-5.0015,-5.0051,-4.9979,-4.9982,-5.0147,-5.0151,-5.0155,-5.0214,0,0,0,0,0,0,-4.9895,-4.9904,-4.993,-4.9935,-4.9943,-5.0009,-4.9956,-4.9954,-4.9968,-4.9962,-4.9971,-4.9971,-4.9959,-5.0011,-5.0019,-5.0055,-4.9984,-5.0143,-5.0149,-5.0153,-5.0209,-5.0219,-5.0229,0,0,0,0,0,-4.9892,-4.9945,-4.9931,-4.9939,-4.9975,-5.0011,-5.0015,-5.0,-4.9971,-4.9997,-4.9996,-4.997,-5.0047,-5.0016,-5.0025,-5.0062,-5.0141,-5.0147,-5.0153,-5.0204,-5.0217,-5.0228,0,0,0,0,0,0,-4.9943,-4.9946,-4.993,-4.9987,-4.9999,-5.0003,-5.0034,-5.0015,-5.0035,-5.0029,-5.001,-5.0013,-5.0066,-5.007,-5.0035,-5.013,-5.0089,-5.0097,-5.0125,-5.0138,-5.0148,-5.0144,-4.9987,0,0,0,0,0,-4.9962,-4.9991,-4.9992,-5.0042,-5.0049,-5.0041,-5.0056,-5.0044,-5.0056,-5.0061,-5.0063,-5.0076,-5.0103,-5.0121,-5.0146,-5.021,-5.0211,-5.0241,-5.0251,-5.0259,-5.0265,-5.03,-5.0313,-5.0176,-5.0176,-5.0176,0,0,-4.9999,-5.0004,-5.0023,-5.0053,-5.006,-5.0091,-5.0045,-5.008,-5.0103,-5.0066,-5.0112,-5.0115,-5.0129,-5.0186,-5.0211,-5.019,-5.0304,-5.0267,-5.0274,-5.0275,-5.0307,-5.032,-5.0332,-5.018,-5.0179,-5.0178,0,0,-5.0083,-5.009,-5.0132,-5.0142,-5.0155,-5.015,-5.0161,-5.0168,-5.0168,-5.0214,-5.0188,-5.0216,-5.0263,-5.0274,-5.0285,-5.0377,-5.0354,-5.0386,-5.0437,-5.0471,-5.0482,-5.0491,-5.0523,-5.0534,-5.0393,-5.0393,-5.0393,0,-5.0127,-5.0172,-5.0157,-5.0193,-5.0207,-5.0177,-5.022,-5.0231,-5.0251,-5.0262,-5.0239,-5.0298,-5.0305,-5.0364,-5.0387,-5.0398,-5.0409,-5.0383,-5.0481,-5.0491,-5.0499,-5.0529,-5.0541,-5.0397,-5.0396,-5.0396,-5.0396,0,-5.0226,-5.0258,-5.0291,-5.0312,-5.033,-5.037,-5.0361,-5.0382,-5.0369,-5.0367,-5.0416,-5.0424,-5.045,-5.0464,-5.0452,-5.0522,-5.0509,-5.0485,-5.0442,-5.0516,-5.0544,-5.0555,-5.0402,-5.0401,-5.04,-5.0399,0,0,-5.0338,-5.0352,-5.0365,-5.0374,-5.0388,-5.0413,-5.0453,-5.0478,-5.0496,-5.0513,-5.0545,-5.0587,-5.0565,-5.0579,-5.0568,-5.0598,-5.067,-5.057,-5.057,-5.0587,-5.0747,-5.0763,-5.0777,-5.0656,-5.0659,-5.066,-5.0745,0,-5.0419,-5.0486,-5.0475,-5.054,-5.057,-5.0544,-5.0578,-5.0591,-5.0592,-5.0617,-5.0618,-5.0647,-5.0617,-5.0625,-5.0654,-5.0655,-5.0701,-5.0649,-5.0686,-5.0687,-5.068,-5.0791,-5.0808,-5.0887,-5.0756,-5.0758,-5.0759,0,-5.0521,-5.0542,-5.061,-5.0621,-5.0633,-5.0664,-5.0687,-5.0713,-5.0728,-5.0726,-5.0743,-5.0728,-5.0768,-5.0729,-5.0784,-5.0749,-5.0765,-5.0768,-5.0771,-5.0771,-5.0725,-5.0792,-5.0913,-5.0924,-5.0776,-5.0775,-5.0774,0,-5.0594,-5.064,-5.0686,-5.0696,-5.071,-5.0732,-5.0739,-5.0752,-5.0769,-5.079,-5.0801,-5.0828,-5.0841,-5.0863,-5.0855,-5.0827,-5.0913,-5.0872,-5.0912,-5.0912,-5.0928,-5.0926,-5.105,-5.0943,-5.0943,-5.0943,-5.0942,0,-5.0684,-5.0726,-5.0719,-5.0747,-5.0795,-5.0783,-5.0831,-5.0835,-5.0847,-5.0876,-5.0857,-5.0885,-5.0875,-5.0903,-5.0899,-5.0945,-5.0953,-5.0952,-5.095,-5.0952,-5.0952,-5.0959,-5.0953,-5.0946,-5.0945,-5.0944,-5.0944,0,-5.0771,-5.0768,-5.0817,-5.0828,-5.0832,-5.0866,-5.0875,-5.0902,-5.0902,-5.094,-5.0948,-5.0948,-5.0981,-5.0977,-5.1013,-5.101,-5.1068,-5.106,-5.1062,-5.1059,-5.1098,-5.1094,-5.1228,-5.1245,-5.113,-5.1131,-5.1132,0,-5.0827,-5.0859,-5.0873,-5.0892,-5.09,-5.093,-5.0948,-5.0939,-5.0958,-5.098,-5.1004,-5.1035,-5.1059,-5.1112,-5.1116,-5.1144,-5.1135,-5.1181,-5.1139,-5.1141,-5.1134,-5.113,-5.1133,-5.1188,-5.1189,-5.119,-5.1191,0,-5.0925,-5.0923,-5.0949,-5.0975,-5.0996,-5.1016,-5.1034,-5.1051,-5.1045,-5.1067,-5.11,-5.1119,-5.1156,-5.1187,-5.1214,-5.1222,-5.1206,-5.1205,-5.1215,-5.1216,-5.1215,-5.1214,-5.1081,-5.1201,-5.12,-5.1199,-5.1198,-5.1198,-5.0997,-5.1024,-5.1039,-5.1069,-5.1082,-5.11,-5.1126,-5.1131,-5.1158,-5.1187,-5.1182,-5.1219,-5.1236,-5.127,-5.1282,-5.1311,-5.1295,-5.131,-5.1313,-5.1316,-5.132,-5.1213,-5.1317,-5.1316,-5.1316,-5.1316,-5.1316,0,-5.1093,-5.1102,-5.113,-5.1156,-5.118,-5.1164,-5.1184,-5.1205,-5.1238,-5.1255,-5.1279,-5.1318,-5.1348,-5.1356,-5.1385,-5.1408,-5.1401,-5.1415,-5.1412,-5.1414,-5.1334,-5.1321,-5.142,-5.142,-5.142,-5.142,-5.142,-5.142,-5.1145,-5.119,-5.1191,-5.1243,-5.1252,-5.1288,-5.1301,-5.1318,-5.1332,-5.1375,-5.1401,-5.1406,-5.142,-5.1451,-5.1478,-5.148,-5.1491,-5.1508,-5.1507,-5.1431,-5.142,-5.141,-5.1397,-5.1511,-5.1511,-5.1584,-5.1585,-5.1585]},{"header":{"parameterUnit":"m.s-1","parameterCategory":1,"la1":30.2991,"la2":30.254,"lo1":-89.0895,"lo2":-89.0444,"dy":0.0017,"dx":0.0017,"nx":28,"ny":28,"refTime":"2025-03-03T03:00:00:Z","depth":0,"parameterNumber":3,"parameterNumberName":"V-component_of_WINDS"},"data":[0,0,0,0,0,0,0,0,0,0,0,0,0,0,0,0,0,0,0,0,0,0,0,0,0,0,0,0,0,0,0,0,0,0,0,0,0,0,0,0,0,0,0,0,0,0,0,0,0,0,0,0,0,0,0,0,0,0,5.5271,5.5271,0,5.5239,5.5239,5.5238,5.5165,5.5164,5.5162,5.5161,5.5122,5.5122,5.5122,0,0,0,0,0,0,0,0,0,0,0,0,0,5.5266,5.5267,5.5271,5.5271,5.527,5.5239,5.5238,5.5238,5.5165,5.5163,5.5162,5.516,5.5122,5.5122,5.5122,0,0,0,0,0,0,0,0,0,0,0,0,0,5.5254,5.5267,5.5271,5.523,5.5226,5.5239,5.5238,5.5238,5.5166,5.5163,5.5161,5.5159,5.5121,5.5122,5.5122,5.517,0,0,5.5124,5.5124,0,0,0,0,0,0,0,0,5.5255,5.5255,5.5237,5.5233,5.5229,5.5204,5.5222,5.5215,5.5166,5.5188,5.5161,5.5158,5.515,5.5148,5.5147,5.5169,5.5167,5.5124,5.5124,5.5125,5.5125,0,0,0,0,0,0,0,5.5256,5.5256,5.5258,5.5236,5.5232,5.5213,5.5208,5.5221,5.5182,5.5186,5.5181,5.5179,5.5148,5.5147,5.5146,5.5166,5.5124,5.5125,5.5125,5.5125,5.523,5.5232,0,0,0,0,0,0,5.5263,5.5257,5.5259,5.5257,5.5237,5.5215,5.521,5.5214,5.5182,5.5175,5.5181,5.5175,5.5147,5.5145,5.5144,5.5201,5.5125,5.5125,5.5125,5.5227,5.523,5.5233,0,0,0,0,0,0,5.5264,5.5264,5.526,5.5256,5.5254,5.5217,5.5222,5.5214,5.5213,5.5178,5.517,5.5187,5.5145,5.5143,5.5166,5.5198,5.5125,5.5126,5.5224,5.5228,5.5232,5.5313,0,0,0,0,0,0,5.5264,5.5265,5.5283,5.5257,5.5254,5.5284,5.5224,5.5215,5.5215,5.5208,5.5181,5.5175,5.5143,5.5165,5.5166,5.5198,5.5126,5.5221,5.5226,5.5231,5.5308,5.5319,5.533,0,0,0,0,0,5.5264,5.5305,5.5284,5.5285,5.5276,5.5286,5.5284,5.5249,5.5218,5.5236,5.5214,5.5176,5.5195,5.5168,5.5169,5.5201,5.5219,5.5225,5.523,5.5303,5.5317,5.5329,0,0,0,0,0,0,5.5332,5.53,5.5277,5.5311,5.5302,5.5273,5.5294,5.5264,5.5262,5.5255,5.521,5.5204,5.5234,5.5219,5.519,5.5248,5.5201,5.5207,5.5256,5.5269,5.528,5.5283,5.5127,0,0,0,0,0,5.5352,5.5364,5.5334,5.5367,5.5364,5.5331,5.5333,5.5308,5.5295,5.529,5.5269,5.5258,5.5262,5.5264,5.5265,5.5305,5.53,5.5328,5.5339,5.5348,5.5354,5.5377,5.539,5.5251,5.5251,5.5251,0,0,5.5391,5.5376,5.5385,5.5381,5.5371,5.5384,5.5328,5.5342,5.5351,5.5292,5.5313,5.5298,5.5282,5.5315,5.5328,5.5303,5.5391,5.5355,5.5363,5.5363,5.5384,5.5398,5.5409,5.5255,5.5254,5.5254,0,0,5.547,5.5459,5.5487,5.548,5.5467,5.5445,5.5452,5.5429,5.5418,5.5439,5.5396,5.5405,5.5412,5.5404,5.54,5.5482,5.5448,5.5484,5.5541,5.5564,5.5575,5.5585,5.5616,5.5628,5.5489,5.549,5.549,0,5.552,5.5539,5.5504,5.5524,5.5524,5.5475,5.5504,5.5497,5.5484,5.5485,5.5459,5.547,5.5455,5.5487,5.5508,5.5506,5.5513,5.5486,5.5577,5.5586,5.5595,5.5624,5.5636,5.5494,5.5494,5.5493,5.5493,0,5.5603,5.5617,5.5641,5.5635,5.5638,5.5661,5.563,5.5637,5.5612,5.5594,5.5618,5.5599,5.5598,5.5603,5.5577,5.5633,5.5619,5.5585,5.5538,5.5613,5.564,5.5651,5.5501,5.5499,5.5498,5.5497,0,0,5.5721,5.5699,5.5709,5.5707,5.5691,5.5701,5.5724,5.5725,5.5734,5.5727,5.5745,5.5755,5.5726,5.5722,5.5695,5.5716,5.5786,5.568,5.5679,5.5702,5.5849,5.5875,5.5889,5.5763,5.5765,5.5767,5.5851,0,5.5797,5.5836,5.5808,5.5852,5.5866,5.5822,5.5841,5.5834,5.5818,5.5827,5.5808,5.5817,5.5776,5.5775,5.5793,5.5773,5.5815,5.5767,5.578,5.5781,5.5787,5.5902,5.5929,5.6009,5.5861,5.5863,5.5864,0,5.589,5.5893,5.594,5.5926,5.5931,5.5949,5.5951,5.596,5.5951,5.5938,5.5938,5.5907,5.5928,5.5882,5.5912,5.588,5.5884,5.5876,5.5878,5.5878,5.5828,5.5907,5.6033,5.6046,5.588,5.5879,5.5877,0,5.5975,5.599,5.6021,5.602,5.6004,5.6019,5.6012,5.6002,5.6006,5.6007,5.601,5.6012,5.6014,5.6016,5.5987,5.5956,5.6022,5.5972,5.6012,5.6013,5.6027,5.6027,5.6158,5.6028,5.6028,5.6028,5.6028,0,5.6063,5.6094,5.606,5.6079,5.6113,5.608,5.6114,5.6102,5.6095,5.6111,5.6071,5.6087,5.6047,5.6058,5.6035,5.6065,5.6065,5.6056,5.605,5.606,5.6062,5.6062,5.6057,5.6031,5.603,5.603,5.6029,0,5.6163,5.6141,5.6173,5.6157,5.6153,5.6179,5.6165,5.6182,5.6165,5.6187,5.619,5.6163,5.6175,5.6147,5.6153,5.6138,5.6181,5.6165,5.6185,5.6181,5.6223,5.6221,5.636,5.6377,5.6236,5.6237,5.6238,0,5.6222,5.6245,5.6233,5.6243,5.624,5.6255,5.6261,5.623,5.6238,5.6233,5.6251,5.6261,5.6267,5.6289,5.6269,5.6275,5.626,5.6308,5.626,5.6271,5.6263,5.6263,5.6266,5.6318,5.632,5.6321,5.6322,0,5.6328,5.6318,5.6329,5.6338,5.6347,5.6351,5.6353,5.6362,5.633,5.6341,5.6355,5.636,5.637,5.6381,5.6383,5.6375,5.6344,5.6338,5.6348,5.6359,5.6371,5.6368,5.6214,5.6335,5.6334,5.6333,5.6332,5.6331,5.641,5.6431,5.6428,5.6442,5.6442,5.6445,5.6462,5.645,5.6461,5.6469,5.645,5.6469,5.6463,5.6464,5.646,5.6475,5.6453,5.6466,5.647,5.6474,5.6483,5.6369,5.6475,5.6474,5.6474,5.6474,5.6473,0,5.6517,5.6514,5.6529,5.6535,5.6547,5.652,5.6521,5.6533,5.6551,5.655,5.6559,5.6576,5.6588,5.6571,5.658,5.6595,5.6581,5.6598,5.6597,5.6596,5.65,5.6492,5.6609,5.6609,5.6609,5.6609,5.6609,5.6609,5.6575,5.6609,5.6599,5.6634,5.6629,5.6651,5.6654,5.6658,5.6657,5.668,5.6691,5.6681,5.6674,5.6682,5.6692,5.6687,5.6692,5.6715,5.6705,5.6616,5.6603,5.659,5.6582,5.6716,5.6717,5.68,5.6801,5.6802]}]]